Showing default

BRO-6, 52422

Orbit data source: Space-Track

BRO-6, 52422 is a payload satellite owned by Unseen Labs (FR) in SSO that was launched on Mon, 02 May 2022 UTC via an ELECTRON launch vehicle from the Rocket Lab Launch Complex (RLLC). Payload-class satellites include a variety of spacecraft equipped with specific instruments for various scientific and technological missions. These include communications satellites like Starlink; space stations such as the ISS; scientific satellites like the Hubble; Earth observation satellites from companies like Planet Labs, Umbra, and HawkEye 360; GPS; miniature CubeSats for education and research; and military/defense satellites.

Loading next visibility...
Identifier
52422, 2022-047AE
Orbit
SSO
Country
Flag of FRFR
Related business
Manufacturer
GOMSpace
Mission
Operational Commercial Sigint
Bus & Motor
CUBESAT 6U, Unknown motor
Mass
10 kg wet, ~10 kg dry
Launch date (UTC)
2022-05-02 (4 years ago)
Launch vehicle
ELECTRON
Launch site
Rocket Lab Launch Complex (RLLC)
Object type
Payload
Rocket body
Debris
Shape & HBR
Box, 0.1 m
Radar Cross Section
0.080 m², Medium (>0.1 m² and < 1m²)

Expand to show TLE details & history
Last TLE update: 22 hours ago

TLE from 22 hours ago
0 BRO-6
1 52422U 22047AE  26172.52582147  .00030164  00000-0  52346-3 0  9999
2 52422  97.3393 263.6649 0004629  64.8972 295.2759 15.50801810231828
Epoch: 2026-06-21T12:37Z
TLE epoch observation values (Epoch: 2026-06-21T12:37:10.975Z)
Latitude
-0.00008°
Longitude
164.64435°
Altitude
416.176 km
Speed
7.662 km/s
True Right ascension
17h 34m 39s
True Declination
0° 00' 00"
Sunlit
Object was in full shadow at epoch
Visualization orbit readout
Latitude
Unknown
Longitude
Unknown
Altitude
Unknown
Speed
Unknown
Apparent Right ascension
Unknown
Apparent Declination
Unknown
Sunlit
N/A
Visualization observer readout
Local Sidereal Time
21:42:34
Azimuth
Unknown
Elevation
Unknown
Doppler factor
Unknown
Orbital elements
Apogee altitude
414.449 km
Perigee altitude
408.163 km
Semi-major axis
6,789.443 km
Eccentricity
0.00046
Inclination
97.3393°
RAAN
263.6649°
Arg. of periapsis
64.8972°
True anomaly
295.22792°
Mean anomaly
295.2759°
Eccentric anomaly
295.25191°
Mean motion
3.87964 °/min
Orbital period
92.79 mins
BSTAR
0.00052346
Loading maneuver chart data...
Computing Atmospheric mass density...

Documentation

Showing up to 5 results
|